TimeCST,TemperatureF,Dew PointF,Humidity,Sea Level PressureIn,VisibilityMPH,Wind Direction,Wind SpeedMPH,Gust SpeedMPH,PrecipitationIn,Events,Conditions,WindDirDegrees,DateUTC
12:15 AM,37.4,26.6,65,29.85,10.0,ESE,12.7,-,N/A,,Clear,120,2013-03-04 06:15:00
12:35 AM,39.2,26.6,61,29.84,10.0,ESE,12.7,18.4,N/A,,Clear,120,2013-03-04 06:35:00
12:55 AM,37.4,26.6,65,29.83,10.0,ESE,13.8,-,N/A,,Clear,120,2013-03-04 06:55:00
1:15 AM,37.4,26.6,65,29.82,10.0,ESE,11.5,-,N/A,,Clear,120,2013-03-04 07:15:00
1:35 AM,37.4,26.6,65,29.82,10.0,ESE,13.8,-,N/A,,Clear,120,2013-03-04 07:35:00
1:55 AM,37.4,26.6,65,29.81,10.0,ESE,15.0,-,N/A,,Clear,110,2013-03-04 07:55:00
2:15 AM,37.4,26.6,65,29.80,10.0,ESE,13.8,-,N/A,,Clear,120,2013-03-04 08:15:00
2:35 AM,37.4,26.6,65,29.79,10.0,ESE,15.0,-,N/A,,Clear,120,2013-03-04 08:35:00
2:55 AM,37.4,26.6,65,29.77,10.0,ESE,15.0,-,N/A,,Clear,120,2013-03-04 08:55:00
3:35 AM,37.4,26.6,65,29.75,10.0,ESE,13.8,-,N/A,,Clear,110,2013-03-04 09:35:00
3:55 AM,37.4,26.6,65,29.75,10.0,ESE,13.8,-,N/A,,Clear,120,2013-03-04 09:55:00
4:15 AM,37.4,26.6,65,29.75,10.0,ESE,13.8,-,N/A,,Clear,110,2013-03-04 10:15:00
4:55 AM,35.6,26.6,70,29.74,10.0,ESE,15.0,-,N/A,,Clear,120,2013-03-04 10:55:00
5:15 AM,35.6,26.6,70,29.74,10.0,ESE,11.5,-,N/A,,Clear,120,2013-03-04 11:15:00
6:47 AM,35.6,28.4,75,29.74,10.0,ESE,12.7,-,N/A,,Overcast,120,2013-03-04 12:47:00
7:48 AM,37.4,28.4,70,29.73,10.0,ESE,11.5,-,N/A,,Mostly Cloudy,110,2013-03-04 13:48:00
8:50 AM,39.2,30.2,70,29.74,10.0,ESE,11.5,-,N/A,,Mostly Cloudy,120,2013-03-04 14:50:00
9:46 AM,44.6,32.0,61,29.74,10.0,ESE,12.7,-,N/A,,Mostly Cloudy,110,2013-03-04 15:46:00
10:51 AM,53.6,35.6,51,29.71,10.0,SE,12.7,-,N/A,,Scattered Clouds,130,2013-03-04 16:51:00
11:45 AM,57.2,39.2,51,29.69,10.0,ESE,10.4,-,N/A,,Scattered Clouds,120,2013-03-04 17:45:00
12:48 PM,60.8,39.2,45,29.66,10.0,SE,10.4,16.1,N/A,,Scattered Clouds,140,2013-03-04 18:48:00
2:45 PM,62.6,41.0,45,29.63,10.0,SSE,8.1,-,N/A,,Mostly Cloudy,150,2013-03-04 20:45:00
3:45 PM,60.8,42.8,52,29.65,10.0,SSE,11.5,-,N/A,,Mostly Cloudy,150,2013-03-04 21:45:00
4:45 PM,57.2,42.8,59,29.67,10.0,SSE,10.4,-,N/A,,Mostly Cloudy,160,2013-03-04 22:45:00
5:45 PM,57.2,42.8,59,29.69,10.0,South,4.6,-,N/A,,Mostly Cloudy,190,2013-03-04 23:45:00
6:55 PM,53.6,42.8,67,29.71,10.0,SSE,4.6,-,N/A,,Mostly Cloudy,160,2013-03-05 00:55:00
7:45 PM,50.0,42.8,76,29.72,10.0,SE,5.8,-,N/A,,Scattered Clouds,140,2013-03-05 01:45:00
7:55 PM,50.0,42.8,76,29.72,10.0,ESE,5.8,-,N/A,,Partly Cloudy,120,2013-03-05 01:55:00
8:15 PM,50.0,44.6,82,29.72,10.0,ESE,8.1,-,N/A,,Clear,110,2013-03-05 02:15:00
8:35 PM,48.2,44.6,87,29.72,10.0,ESE,6.9,-,N/A,,Partly Cloudy,110,2013-03-05 02:35:00
8:50 PM,48.2,44.6,87,29.73,10.0,East,5.8,-,N/A,,Scattered Clouds,90,2013-03-05 02:50:00
8:55 PM,48.2,44.6,87,29.73,10.0,ESE,6.9,-,N/A,,Partly Cloudy,110,2013-03-05 02:55:00
9:15 PM,48.2,44.6,87,29.74,10.0,East,5.8,-,N/A,,Clear,100,2013-03-05 03:15:00
9:35 PM,48.2,44.6,87,29.75,10.0,East,5.8,-,N/A,,Clear,100,2013-03-05 03:35:00
9:55 PM,46.4,44.6,93,29.75,10.0,ESE,8.1,-,N/A,,Partly Cloudy,110,2013-03-05 03:55:00
10:15 PM,46.4,42.8,87,29.75,10.0,East,3.5,-,N/A,,Clear,100,2013-03-05 04:15:00
10:35 PM,44.6,42.8,93,29.76,10.0,ESE,4.6,-,N/A,,Clear,120,2013-03-05 04:35:00
10:55 PM,44.6,44.6,100,29.77,10.0,Calm,Calm,-,N/A,,Clear,0,2013-03-05 04:55:00
11:35 PM,42.8,41.0,93,29.78,7.0,Calm,Calm,-,N/A,,Clear,0,2013-03-05 05:35:00
11:55 PM,41.0,41.0,100,29.79,5.0,WNW,5.8,-,N/A,,Clear,300,2013-03-05 05:55:00